カタログに戻る

FENGYUN 1C DEB

運用中PO
NORAD 31198·DEBRIS·🇨🇳 China

打ち上げ May 10, 1999 から Taiyuan Satellite Launch Center

Loading…

次のパス (今後24時間)

TLE

最新Source: Space-Track

元期: Sep 13, 2026, 23:07 UTC

1 31198U 99025BKC 26256.96328833  .00000037  00000-0  67706-4 0  9990
2 31198  98.6091 339.5241 0203409 332.7311  26.3276 13.75583303665373

AllMySatでFENGYUN 1C DEBをリアルタイム追跡

Download on the App Store